Location: Lecco
(45.8566°N, 9.3977°E)
Time: 01:08:23
(UTC+02:00)

ISS - Pass Details

Date: 15 July 2018
Orbit: 402 x 408 km, 51.6° (Epoch: 18 July)

Event Time Altitude Azimuth Distance (km) Brightness Sun altitude
Exits shadow 03:22:30 - 288° (WNW) 1,664 -0.8 -17.8°
Reaches altitude 10° 03:23:02 10° 292° (WNW) 1,468 -1.1 -17.7°
Maximum altitude 03:25:58 29° 355° (N) 779 -1.8 -17.5°
Drops below altitude 10° 03:28:55 10° 58° (ENE) 1,472 -0.1 -17.3°
Sets 03:31:10 0° 70° (ENE) 2,334 0.8 -17.1°
